TimeEST,TemperatureF,Dew PointF,Humidity,Sea Level PressureIn,VisibilityMPH,Wind Direction,Wind SpeedMPH,Gust SpeedMPH,PrecipitationIn,Events,Conditions,WindDirDegrees,DateUTC
12:15 AM,38.1,21.6,51,29.89,10.0,NW,3.5,-,N/A,,Overcast,310,2013-03-02 05:15:00
12:35 AM,37.9,21.6,52,29.90,10.0,WNW,3.5,-,N/A,,Overcast,300,2013-03-02 05:35:00
12:55 AM,37.8,21.7,53,29.89,10.0,WNW,3.5,-,N/A,,Overcast,300,2013-03-02 05:55:00
1:15 AM,37.6,21.9,53,29.90,10.0,NW,3.5,-,N/A,,Overcast,310,2013-03-02 06:15:00
1:35 AM,37.4,22.1,54,29.90,10.0,WNW,3.5,-,N/A,,Overcast,300,2013-03-02 06:35:00
1:55 AM,37.4,22.3,54,29.90,10.0,Calm,Calm,-,N/A,,Overcast,0,2013-03-02 06:55:00
2:15 AM,37.2,22.6,56,29.90,10.0,Calm,Calm,-,N/A,,Overcast,0,2013-03-02 07:15:00
2:35 AM,36.7,23.5,59,29.90,10.0,Calm,Calm,-,N/A,,Overcast,0,2013-03-02 07:35:00
2:55 AM,36.5,24.3,61,29.89,10.0,Calm,Calm,-,N/A,,Overcast,0,2013-03-02 07:55:00
3:15 AM,36.7,22.8,57,29.89,10.0,Calm,Calm,-,N/A,,Overcast,0,2013-03-02 08:15:00
3:35 AM,36.9,22.6,56,29.88,10.0,Calm,Calm,-,N/A,,Overcast,0,2013-03-02 08:35:00
3:55 AM,36.7,22.3,56,29.87,10.0,WNW,3.5,-,N/A,,Overcast,300,2013-03-02 08:55:00
4:15 AM,36.9,22.1,55,29.88,10.0,Calm,Calm,-,N/A,,Overcast,0,2013-03-02 09:15:00
4:35 AM,36.5,23.2,59,29.88,10.0,Calm,Calm,-,N/A,,Overcast,0,2013-03-02 09:35:00
4:55 AM,36.1,23.4,60,29.88,10.0,Calm,Calm,-,N/A,,Overcast,0,2013-03-02 09:55:00
5:15 AM,36.0,23.4,60,29.87,10.0,Calm,Calm,-,N/A,,Overcast,0,2013-03-02 10:15:00
5:35 AM,36.0,23.2,60,29.87,10.0,NW,3.5,-,N/A,,Overcast,320,2013-03-02 10:35:00
5:55 AM,35.2,25.5,68,29.88,10.0,Calm,Calm,-,N/A,,Overcast,0,2013-03-02 10:55:00
6:15 AM,35.6,24.6,64,29.88,10.0,Calm,Calm,-,N/A,,Overcast,0,2013-03-02 11:15:00
6:35 AM,35.4,24.6,65,29.88,10.0,Calm,Calm,-,N/A,,Overcast,0,2013-03-02 11:35:00
6:55 AM,35.1,25.2,67,29.88,10.0,Calm,Calm,-,N/A,,Overcast,0,2013-03-02 11:55:00
7:15 AM,34.3,28.0,78,29.88,10.0,Calm,Calm,-,N/A,,Overcast,0,2013-03-02 12:15:00
7:35 AM,35.1,27.7,74,29.88,10.0,Calm,Calm,-,N/A,,Overcast,0,2013-03-02 12:35:00
7:55 AM,35.6,27.3,72,29.89,10.0,Calm,Calm,-,N/A,,Overcast,0,2013-03-02 12:55:00
8:15 AM,36.3,25.2,64,29.90,10.0,Calm,Calm,-,N/A,,Overcast,0,2013-03-02 13:15:00
8:35 AM,37.4,25.2,61,29.90,10.0,Calm,Calm,-,N/A,,Overcast,0,2013-03-02 13:35:00
8:55 AM,37.4,24.1,59,29.90,10.0,Calm,Calm,-,N/A,,Overcast,0,2013-03-02 13:55:00
9:15 AM,38.7,25.0,58,29.89,10.0,Calm,Calm,-,N/A,,Overcast,0,2013-03-02 14:15:00
9:35 AM,38.8,24.3,56,29.89,10.0,Calm,Calm,-,N/A,,Overcast,0,2013-03-02 14:35:00
9:55 AM,39.0,23.9,55,29.89,10.0,NNW,4.6,-,N/A,,Overcast,340,2013-03-02 14:55:00
10:15 AM,39.4,23.0,52,29.88,10.0,NNW,8.1,-,N/A,,Overcast,330,2013-03-02 15:15:00
10:35 AM,39.7,22.3,50,29.87,10.0,NW,4.6,-,N/A,,Overcast,310,2013-03-02 15:35:00
10:55 AM,40.6,22.5,48,29.87,10.0,West,6.9,-,N/A,,Overcast,280,2013-03-02 15:55:00
11:15 AM,40.1,21.7,48,29.87,10.0,NNW,4.6,-,N/A,,Overcast,340,2013-03-02 16:15:00
11:35 AM,40.5,21.6,47,29.87,10.0,WNW,8.1,-,N/A,,Overcast,290,2013-03-02 16:35:00
11:55 AM,40.8,21.9,47,29.86,10.0,Calm,Calm,-,N/A,,Overcast,0,2013-03-02 16:55:00
12:15 PM,41.2,21.4,45,29.86,10.0,NW,6.9,-,N/A,,Overcast,310,2013-03-02 17:15:00
12:35 PM,41.0,21.2,45,29.85,10.0,WNW,9.2,-,N/A,,Overcast,300,2013-03-02 17:35:00
12:55 PM,41.4,21.6,45,29.84,10.0,NW,9.2,-,N/A,,Overcast,320,2013-03-02 17:55:00
1:35 PM,41.7,21.2,44,29.83,10.0,NNW,9.2,-,N/A,,Overcast,330,2013-03-02 18:35:00
1:55 PM,41.9,20.5,42,29.83,10.0,WNW,8.1,-,N/A,,Mostly Cloudy,290,2013-03-02 18:55:00
2:15 PM,42.4,19.4,40,29.82,10.0,NNW,8.1,-,N/A,,Overcast,340,2013-03-02 19:15:00
2:35 PM,41.9,20.5,42,29.82,10.0,NNW,8.1,-,N/A,,Overcast,340,2013-03-02 19:35:00
2:55 PM,41.5,19.8,42,29.82,10.0,NW,6.9,-,N/A,,Overcast,310,2013-03-02 19:55:00
3:15 PM,41.4,19.9,42,29.82,10.0,WNW,6.9,-,N/A,,Overcast,300,2013-03-02 20:15:00
3:35 PM,41.2,20.1,43,29.82,10.0,NW,6.9,-,N/A,,Overcast,320,2013-03-02 20:35:00
3:55 PM,41.0,19.9,43,29.82,10.0,NW,4.6,-,N/A,,Overcast,320,2013-03-02 20:55:00
4:15 PM,41.0,20.7,44,29.82,10.0,NW,3.5,-,N/A,,Overcast,320,2013-03-02 21:15:00
4:55 PM,40.3,21.2,47,29.82,10.0,NNW,5.8,-,N/A,,Overcast,340,2013-03-02 21:55:00
5:15 PM,40.1,21.0,47,29.82,10.0,NNW,8.1,-,N/A,,Overcast,340,2013-03-02 22:15:00
5:35 PM,39.7,21.2,48,29.83,10.0,North,6.9,-,N/A,,Mostly Cloudy,360,2013-03-02 22:35:00
5:55 PM,38.3,21.0,50,29.84,10.0,NNW,6.9,-,N/A,,Scattered Clouds,340,2013-03-02 22:55:00
6:15 PM,37.4,20.8,51,29.85,10.0,Calm,Calm,-,N/A,,Scattered Clouds,0,2013-03-02 23:15:00
6:35 PM,36.9,20.8,52,29.86,10.0,NW,3.5,-,N/A,,Scattered Clouds,320,2013-03-02 23:35:00
6:55 PM,36.9,20.7,52,29.86,10.0,NW,6.9,-,N/A,,Mostly Cloudy,310,2013-03-02 23:55:00
7:15 PM,37.4,20.1,50,29.86,10.0,NW,5.8,-,N/A,,Overcast,310,2013-03-03 00:15:00
7:35 PM,37.4,19.6,49,29.87,10.0,NW,5.8,-,N/A,,Overcast,320,2013-03-03 00:35:00
7:55 PM,36.9,19.0,49,29.87,10.0,NW,8.1,-,N/A,,Overcast,320,2013-03-03 00:55:00
8:15 PM,35.8,18.3,49,29.88,10.0,NW,4.6,-,N/A,,Mostly Cloudy,310,2013-03-03 01:15:00
8:35 PM,34.9,17.6,49,29.89,10.0,NW,5.8,-,N/A,,Scattered Clouds,310,2013-03-03 01:35:00
8:55 PM,34.0,17.2,50,29.89,10.0,NW,5.8,-,N/A,,Clear,310,2013-03-03 01:55:00
9:15 PM,33.4,17.4,52,29.89,10.0,WNW,4.6,-,N/A,,Clear,290,2013-03-03 02:15:00
9:35 PM,32.7,17.6,54,29.89,10.0,WNW,4.6,-,N/A,,Clear,300,2013-03-03 02:35:00
9:55 PM,32.5,17.4,54,29.89,10.0,WNW,4.6,-,N/A,,Clear,300,2013-03-03 02:55:00
10:15 PM,32.0,17.4,55,29.89,10.0,WNW,5.8,-,N/A,,Clear,290,2013-03-03 03:15:00
10:35 PM,32.0,17.6,55,29.90,10.0,WNW,5.8,-,N/A,,Clear,290,2013-03-03 03:35:00
10:55 PM,31.6,17.6,56,29.90,10.0,West,4.6,-,N/A,,Clear,280,2013-03-03 03:55:00
11:15 PM,31.5,17.6,57,29.89,10.0,WNW,3.5,-,N/A,,Clear,290,2013-03-03 04:15:00
11:35 PM,31.6,18.0,57,29.89,10.0,West,4.6,-,N/A,,Mostly Cloudy,270,2013-03-03 04:35:00
11:55 PM,31.5,18.3,58,29.89,10.0,West,3.5,-,N/A,,Overcast,270,2013-03-03 04:55:00